Location: *
(45.9686°N, 0.7056°W)
Time: 10:50:54
(UTC+00:00)

Daily predictions for brighter satellites

Satellite Brightness Start Highest point End
(mag) Time Altitude Azimuth Time Altitude Azimuth Time Altitude Azimuth
CZ-4C R/B 3.0 17:36:25 10° NW 17:43:39 86° NE 17:51:53 10° SE
Cosmos 1486 Rocket 4.2 17:38:37 10° NNW 17:43:58 86° WSW 17:49:18 10° SSE
Cosmos 1758 3.2 17:40:05 10° S 17:44:03 77° E 17:48:01 10° NNE
Unknown 3.7 17:39:59 10° SW 17:44:06 72° SE 17:48:14 10° ENE
COSMOS 2406 4.1 17:40:23 10° N 17:45:25 30° NE 17:50:25 10° ESE
Cosmos 2082 Rocket 4.0 17:43:27 10° N 17:46:17 14° NE 17:49:06 10° ENE
Unknown 3.6 17:44:02 10° SW 17:48:09 77° SSE 17:52:19 10° ENE
Unknown 3.6 17:44:09 10° SW 17:48:17 77° SSE 17:52:27 10° ENE
Cosmos 1354 Rocket 4.1 17:44:02 10° NNW 17:49:12 56° ENE 17:54:20 10° SE
Unknown 3.6 17:45:55 10° SW 17:50:03 81° SSE 17:54:13 10° ENE
NOSS 2-1 (C) 4.5 17:46:42 10° NW 17:52:03 72° NE 17:59:33 10° SE
Cosmos 1726 Rocket 4.0 17:48:07 10° SSE 17:52:12 38° E 17:56:16 10° NNE
ASTEX 1 3.8 17:48:32 10° NNE 17:53:14 42° E 17:57:55 10° SSE
Unknown 3.6 17:49:13 10° SW 17:53:21 85° SSE 17:57:31 10° ENE
Unknown 3.6 17:49:46 10° SW 17:53:55 84° SSE 17:58:04 10° ENE
Unknown 3.6 17:50:48 10° SW 17:54:57 85° SSE 17:59:07 10° ENE
NOSS 2-1 (D) 4.5 17:49:59 10° NW 17:55:23 75° NE 18:02:56 10° SE
Okean-O 3.0 17:52:10 10° S 17:56:35 71° WSW 18:01:02 10° NNW
FengYun 1-2 T 4.3 17:51:10 10° SSE 17:56:43 61° ENE 18:02:15 10° N
CSL-04 Debris 4.4 17:51:39 10° SE 17:56:50 48° ENE 18:02:06 10° N
Cosmos 1242 Rocket 3.6 17:54:41 10° NNE 17:57:52 26° ENE 18:01:02 10° SE
Unknown 3.6 17:54:01 10° SW 17:58:09 86° SSE 18:02:20 10° ENE
Shenzhou-11 Module 3.2 17:56:22 10° SW 17:58:45 26° SSE 18:00:58 11° ESE
Cosmos 968 Rocket 3.5 17:54:23 10° NNW 17:59:41 76° ENE 18:04:56 10° SSE
Unknown 4.4 17:58:03 10° NW 18:00:41 24° N 18:03:09 11° ENE
Unknown 3.6 17:57:25 10° WSW 18:01:35 88° NNW 18:05:45 10° ENE
Cosmos 2239 Rocket 4.5 17:55:55 10° N 18:02:04 65° E 18:08:09 10° SSE
Cosmos 2058 Rocket 3.7 17:58:16 10° SSE 18:02:08 32° E 18:06:02 10° NNE
Unknown 3.6 17:59:05 10° WSW 18:03:14 86° NNW 18:07:24 10° ENE
Cosmos 1939 Rocket 4.0 18:00:41 10° ESE 18:03:52 24° ENE 18:07:07 10° NNE
Unknown 3.7 18:00:47 10° WSW 18:04:56 84° NNW 18:09:06 10° ENE
Cosmos 2228 3.1 18:01:07 10° S 18:05:25 56° E 18:09:42 10° NNE
Ariane Rocket 3.9 18:01:07 10° ESE 18:05:25 29° ENE 18:09:45 10° N
Unknown 3.7 18:02:26 10° WSW 18:06:35 82° NNW 18:10:43 10° ENE
Cosmos 1821 Rocket 3.9 18:02:19 10° N 18:08:27 81° E 18:14:36 10° S
Lacrosse 5 rocket 1.1 18:05:04 10° NW 18:08:49 78° NE 18:12:47 10° SE
Cosmos 482 Debris 4.5 18:03:41 10° WNW 18:09:16 65° NNE 18:12:02 14° ESE
Unknown 3.7 18:05:44 10° WSW 18:09:52 78° NNW 18:13:52 11° ENE
Unknown 4.3 18:06:24 10° W 18:10:09 44° NNW 18:13:52 10° NE
Unknown 4.5 18:07:33 10° W 18:11:11 39° NNW 18:14:45 10° NE
Unknown 3.7 18:07:30 10° WSW 18:11:39 76° NNW 18:15:34 11° ENE
Cosmos 1844 Rocket 2.7 18:06:42 10° SSW 18:12:21 79° ESE 18:18:01 10° NNE
Unknown 3.7 18:09:06 10° WSW 18:13:15 75° NNW 18:17:06 12° ENE
Meteor 1-16 Rocket 4.3 18:08:24 10° S 18:13:49 53° E 18:19:07 10° NNE
Cosmos 1992 Rocket 3.9 18:08:59 10° SSW 18:14:12 79° ESE 18:19:27 10° NNE
Cosmos 1503 Rocket 4.1 18:09:27 10° NNW 18:14:40 84° WSW 18:19:49 10° SSE
Meteor 2-10 4.3 18:10:04 10° SSE 18:14:48 40° E 18:19:29 10° NNE
Unknown 3.8 18:10:42 10° WSW 18:14:50 75° NNW 18:18:38 12° ENE
Unknown 3.8 18:11:18 10° WSW 18:15:26 73° NNW 18:19:12 12° ENE
Nadezhda 3 Rocket 4.1 18:09:40 10° S 18:15:56 89° W 18:22:20 10° N
Cosmos 921 Rocket 3.2 18:12:33 10° S 18:16:55 51° ESE 18:21:16 10° NNE
Unknown 3.7 18:13:53 10° WSW 18:18:02 74° NNW 18:21:40 13° ENE
CZ-4 R/B 4.4 18:14:52 10° SSE 18:18:59 88° W 18:23:08 10° NNW
Cosmos 1908 4.1 18:16:34 10° SSE 18:19:56 28° E 18:23:18 10° NNE
COSMO-SKYMED 1 2.5 18:16:34 10° NNE 18:20:57 89° ESE 18:25:17 10° SSW
Unknown 3.8 18:17:15 10° WSW 18:21:23 71° NNW 18:24:54 14° NE
YAOGAN 6 2.6 18:18:02 10° SSE 18:21:43 90° E 18:25:23 10° NNW
CZ-4 R/B 1.5 18:18:31 10° SSE 18:22:39 85° WSW 18:26:54 10° NNW
Cosmos 1470 4.4 18:19:11 10° SW 18:22:56 39° WNW 18:26:42 10° N
Cosmos 1328 4.0 18:19:06 10° N 18:22:59 48° ENE 18:26:49 10° SSE
Unknown 3.8 18:18:52 10° WSW 18:23:01 70° NNW 18:26:27 15° NE
Cosmos 1934 Rocket 4.0 18:16:56 10° N 18:23:15 68° E 18:29:35 10° SSE
Cosmos 1535 Rocket 4.4 18:17:11 10° N 18:23:24 69° E 18:29:31 10° SSE
Unknown 3.9 18:20:49 10° WSW 18:24:57 64° NNW 18:28:19 15° NE
Unknown 3.9 18:22:13 10° WSW 18:26:20 67° NNW 18:29:39 15° NE
Cosmos 2084 3.5 18:23:18 10° SW 18:27:51 89° SE 18:32:20 10° NE
Unknown 3.9 18:23:55 10° WSW 18:28:02 65° NNW 18:31:16 16° NE
Cosmos 2278 Rocket 3.0 18:23:58 10° SSE 18:28:41 27° ESE 18:33:23 10° NE
Cosmos 839 Rocket 4.1 18:22:49 10° NNW 18:28:58 64° NE 18:35:49 10° SE
H-2A R/B 3.5 18:28:32 17° ENE 18:29:35 18° ENE 18:33:06 10° NNE
Unknown 4.0 18:27:14 10° WSW 18:31:21 63° NNW 18:34:26 17° NE
USA 116 3.0 18:28:18 10° NNE 18:31:26 72° ESE 18:34:40 10° S
Cosmos 1844 3.7 18:26:13 10° SSW 18:31:55 88° ESE 18:37:45 10° NNE
Unknown 4.0 18:28:57 10° WSW 18:33:03 61° NNW 18:36:05 17° NE
Lacrosse 5 3.1 18:28:49 10° NW 18:33:12 29° NNE 18:35:56 18° ENE
Cosmos 1953 Rocket 3.9 18:29:29 10° NNW 18:33:51 70° W 18:38:09 10° S
HJ-1C 4.2 18:33:05 26° E 18:33:52 30° ENE 18:36:51 10° N
Unknown 4.0 18:30:37 10° WSW 18:34:43 60° NNW 18:37:40 18° NE
Unknown 4.0 18:32:18 10° WSW 18:36:24 59° NNW 18:39:17 19° NE
Unknown 4.1 18:35:39 10° WSW 18:39:43 56° NNW 18:42:28 20° NE
Unknown 4.2 18:37:19 10° WSW 18:41:24 54° NNW 18:44:05 20° NE
Unknown 4.2 18:37:40 10° W 18:41:43 51° NNW 18:44:23 20° NE
ATLAS 5 CENTAUR R/B 2.7 18:38:47 10° WSW 18:42:54 43° NW 18:47:33 10° NNE
Cosmos 292 Rocket 3.7 18:38:38 10° S 18:43:17 58° ESE 18:47:58 10° NNE
Unknown 4.3 18:39:16 10° W 18:43:19 51° NNW 18:45:55 20° NE
Unknown 4.2 18:42:16 10° W 18:46:19 52° NNW 18:48:48 22° NE
Unknown 2.5 18:44:21 10° NW 18:46:59 58° NNE 18:47:05 57° NE
Unknown 4.3 18:45:39 10° W 18:49:41 50° NNW 18:52:00 23° NE
Unknown 4.3 18:47:23 10° W 18:51:25 50° NNW 18:53:41 24° NE
Unknown 4.3 18:49:00 10° W 18:53:01 49° NNW 18:55:12 24° NE
Unknown 4.3 18:50:44 10° W 18:54:45 48° NNW 18:56:52 25° NE
CSL-04 Rocket 4.4 18:51:25 10° S 18:56:52 57° W 19:02:19 10° NNW
Unknown 4.5 18:54:40 10° W 18:58:36 43° NNW 19:00:28 26° NE
CZ-2D R/B 3.3 18:55:17 10° S 18:59:06 76° WSW 19:02:59 10° NNW
NOAA 11 4.1 18:54:24 10° SSE 18:59:52 88° WSW 19:05:21 10° NNW
SL-4 R/B 3.2 18:56:31 10° WNW 18:59:58 32° SW 19:01:45 20° S
Cosmos 1153 Rocket 4.5 18:54:18 10° N 19:00:22 57° ENE 19:06:13 11° SSE
Unknown 4.4 18:57:24 10° W 19:01:24 45° NNW 19:03:13 27° NE
Unknown 4.5 18:59:05 10° W 19:03:04 44° NNW 19:04:49 28° NE
Unknown 4.5 19:00:47 10° W 19:04:46 44° NNW 19:06:26 28° NNE
Cosmos 1812 Rocket 4.4 19:07:06 33° NE 19:07:06 33° NE 19:09:57 10° NNE
Cosmos 489 Rocket 4.4 19:02:07 10° SSW 19:08:20 90° SE 19:14:35 10° NNE
Gbstr 26 Del rocket 4.2 19:03:34 10° WNW 19:09:44 64° NNE 19:12:54 35° E
Cosmos 1356 4.5 19:07:48 10° SSW 19:11:07 46° WNW 19:14:28 10° N
Cosmos 1833 Rocket 2.7 19:08:22 10° NNW 19:13:57 60° ENE 19:15:37 43° ESE
YAOGAN 1 4.4 19:10:40 10° SSW 19:14:32 32° W 19:18:27 10° NNW
Cosmos 1726 3.5 19:11:53 10° SSW 19:15:20 39° WNW 19:18:49 10° N
ARGOS 3.7 19:15:47 38° ENE 19:15:47 38° ENE 19:20:41 10° N
Cosmos 1703 4.3 19:12:40 10° NNW 19:16:27 45° W 19:20:12 10° SSW
SJ-6B 4.3 19:19:40 24° NNE 19:19:40 24° NNE 19:21:26 10° N
Cosmos 1461 3.5 19:18:49 10° NNW 19:22:03 41° NNE 19:22:03 41° NNE
Cosmos 1076 Rocket 3.8 19:23:23 10° N 19:26:55 52° NNE 19:26:55 52° NNE
ADEOS Rocket 3.6 19:21:20 10° NNE 19:28:52 51° E 19:35:56 10° S
COSMOS 2406 3.9 19:24:26 10° NW 19:30:02 52° WSW 19:34:55 13° S
Cosmos 2082 Rocket 2.2 19:26:00 10° NNW 19:31:40 59° ENE 19:32:05 57° ENE
MOS 1 4.3 19:30:30 21° S 19:34:23 80° WSW 19:40:04 10° NNW
SJ-11-01 4.3 19:40:17 63° SSW 19:40:58 77° WSW 19:45:41 10° NNW
Ariane Rocket 4.2 19:39:24 10° S 19:44:12 41° W 19:49:02 10° NNW
Lacrosse 5 rocket 3.7 19:45:13 10° W 19:47:33 15° SW 19:48:43 14° SW
SPOT 3 Rocket 3.4 19:49:52 85° N 19:49:52 85° N 19:54:59 10° NNW
USA 238 DEB 3.5 19:46:25 10° SSW 19:53:03 68° ESE 19:53:10 68° ESE
USA 238 3.5 19:46:32 10° SSW 19:53:09 68° ESE 19:53:11 68° ESE
Cosmos 1459 Rocket 3.8 19:48:58 10° N 19:55:11 84° E 19:55:52 72° SSE
Resurs 01 Rocket 3.9 19:59:19 16° N 19:59:19 16° N 20:00:20 10° N
USA 234 3.9 20:01:10 39° S 20:01:10 39° S 20:05:28 10° SSW
In-Cosmos 22 Rocket 4.5 19:55:59 10° N 20:00:10 55° N 20:00:10 55° N
Cosmos 1802 Rocket 3.9 20:00:22 10° N 20:06:46 85° NE 20:06:46 85° NE
H-2A R/B 2.4 20:09:10 63° NW 20:09:10 63° NW 20:13:45 10° NNW
Cosmos 2278 Rocket 2.9 20:06:57 10° SW 20:12:28 50° WNW 20:16:57 16° NNE
SJ 16-02 3.9 20:08:54 10° N 20:09:32 14° N 20:09:32 14° N
Cosmos 2173 Rocket 4.1 20:09:43 10° NNW 20:15:59 69° W 20:16:35 65° SW
Lacrosse 5 2.9 20:11:45 10° NW 20:15:08 42° NW 20:15:08 42° NW
CZ-2C R/B 4.0 20:26:59 48° NNW 20:26:59 48° NNW 20:31:06 10° NNW
NOSS 3-3 (A) 4.4 20:17:50 10° NW 20:25:22 84° SW 20:25:43 81° S
NOSS 3-3 (C) 4.4 20:17:56 10° NW 20:25:28 85° SW 20:25:48 82° S
ATLAS 5 CENTAUR R/B 4.4 20:26:24 10° NW 20:28:59 14° NNW 20:30:17 13° N
BREEZE-M DEB (TANK) 4.5 20:23:52 10° WSW 20:27:46 29° W 20:27:46 29° W
Cosmos 2082 Rocket 4.3 21:10:54 10° NW 21:13:57 21° W 21:13:57 21° W
